When you browse on this site, cookies collect data to enhance your experience and personalize the content and advertising you see.
Visit our Privacy Policy to learn more. By continuing to use the site, you agree to this use of cookies and data.
  • In France
  • List of Countries
  • For 7 days
  • Water Temperature
  • Weather Map
  • Weather Widgets
  • user-avatar
    Login

    Hourly Weather Manika

    Today, 26 August, Monday

    Time Temperature Precipitation Wind Pressure Humidity
    00:00 +16°C° 0 mm 2 mps 682 mmHg 87%
    01:00 +16°C° 0 mm 1 mps 682 mmHg 89%
    02:00 +15°C° 0 mm 1 mps 682 mmHg 92%
    03:00 +15°C° 0 mm 1 mps 681 mmHg 92%
    04:00 +15°C° 0 mm 1 mps 681 mmHg 91%
    05:00 +14°C° 0 mm 1 mps 681 mmHg 91%
    06:00 +18°C° 0 mm 1 mps 682 mmHg 79%
    07:00 +20°C° 0 mm 1 mps 683 mmHg 68%
    08:00 +23°C° 0 mm 1 mps 684 mmHg 56%
    09:00 +26°C° 0 mm 1 mps 684 mmHg 45%
    10:00 +30°C° 0 mm 1 mps 684 mmHg 34%
    11:00 +34°C° 0 mm 1 mps 685 mmHg 23%
    12:00 +34°C° 0 mm 1 mps 684 mmHg 21%
    13:00 +34°C° 0 mm 1 mps 683 mmHg 19%
    14:00 +34°C° 0 mm 1 mps 682 mmHg 17%
    15:00 +34°C° 0 mm 2 mps 682 mmHg 19%
    16:00 +32°C° 0 mm 2 mps 681 mmHg 21%
    17:00 +30°C° 0 mm 2 mps 681 mmHg 23%
    18:00 +28°C° 0 mm 3 mps 681 mmHg 30%
    19:00 +26°C° 0 mm 3 mps 681 mmHg 36%
    20:00 +22°C° 0 mm 3 mps 681 mmHg 42%
    21:00 +21°C° 0 mm 3 mps 681 mmHg 45%
    22:00 +20°C° 0 mm 2 mps 681 mmHg 48%
    23:00 +19°C° 0 mm 2 mps 681 mmHg 51%

    Tomorrow, 27 August, Tuesday

    Time Temperature Precipitation Wind Pressure Humidity
    00:00 +18°C° 0 mm 2 mps 681 mmHg 54%
    01:00 +18°C° 0 mm 2 mps 681 mmHg 58%
    02:00 +17°C° 0 mm 2 mps 680 mmHg 61%
    03:00 +17°C° 0 mm 2 mps 680 mmHg 63%
    04:00 +16°C° 0 mm 1 mps 680 mmHg 65%
    05:00 +16°C° 0 mm 1 mps 680 mmHg 66%
    06:00 +19°C° 0 mm 1 mps 681 mmHg 58%
    07:00 +22°C° 0 mm 1 mps 682 mmHg 49%
    08:00 +23°C° 0 mm 0 mps 683 mmHg 41%
    09:00 +28°C° 0 mm 1 mps 683 mmHg 34%
    10:00 +31°C° 0 mm 1 mps 683 mmHg 27%
    11:00 +34°C° 0 mm 1 mps 684 mmHg 21%
    12:00 +34°C° 0 mm 1 mps 683 mmHg 19%
    13:00 +35°C° 0 mm 2 mps 682 mmHg 18%
    14:00 +35°C° 0 mm 2 mps 681 mmHg 17%
    15:00 +34°C° 0 mm 3 mps 681 mmHg 18%
    16:00 +33°C° 0 mm 3 mps 680 mmHg 20%
    17:00 +31°C° 0 mm 3 mps 680 mmHg 22%
    18:00 +29°C° 0 mm 3 mps 680 mmHg 28%
    19:00 +26°C° 0 mm 4 mps 680 mmHg 34%
    20:00 +23°C° 0 mm 4 mps 680 mmHg 40%
    21:00 +22°C° 0 mm 3 mps 680 mmHg 44%
    22:00 +20°C° 0 mm 3 mps 680 mmHg 47%
    23:00 +19°C° 0 mm 2 mps 680 mmHg 50%

    Day after tomorrow, 28 August, Wednesday

    Time Temperature Precipitation Wind Pressure Humidity
    00:00 +18°C° 0 mm 2 mps 680 mmHg 57%
    01:00 +17°C° 0 mm 2 mps 680 mmHg 64%
    02:00 +17°C° 0 mm 2 mps 679 mmHg 71%
    03:00 +16°C° 0 mm 2 mps 679 mmHg 73%
    04:00 +16°C° 0 mm 1 mps 679 mmHg 76%
    05:00 +15°C° 0 mm 1 mps 679 mmHg 78%
    06:00 +19°C° 0 mm 1 mps 680 mmHg 66%
    07:00 +22°C° 0 mm 1 mps 681 mmHg 55%
    08:00 +24°C° 0 mm 1 mps 681 mmHg 43%
    09:00 +28°C° 0 mm 1 mps 682 mmHg 35%
    10:00 +31°C° 0 mm 1 mps 682 mmHg 27%
    11:00 +35°C° 0 mm 1 mps 683 mmHg 19%
    12:00 +35°C° 0 mm 2 mps 682 mmHg 19%
    13:00 +35°C° 0 mm 3 mps 681 mmHg 18%
    14:00 +35°C° 0 mm 3 mps 680 mmHg 18%
    15:00 +34°C° 0 mm 4 mps 680 mmHg 20%
    16:00 +33°C° 0 mm 4 mps 680 mmHg 22%
    17:00 +30°C° 0 mm 4 mps 679 mmHg 24%
    18:00 +28°C° 0 mm 4 mps 680 mmHg 29%
    19:00 +26°C° 0 mm 4 mps 680 mmHg 35%
    20:00 +23°C° 0 mm 4 mps 680 mmHg 40%
    21:00 +22°C° 0 mm 3 mps 680 mmHg 44%
    22:00 +21°C° 0 mm 3 mps 680 mmHg 48%
    23:00 +19°C° 0 mm 2 mps 680 mmHg 51%

    29 August, Thursday

    Time Temperature Precipitation Wind Pressure Humidity
    00:00 +18°C° 0 mm 2 mps 680 mmHg 58%
    01:00 +18°C° 0 mm 2 mps 680 mmHg 65%
    02:00 +17°C° 0 mm 2 mps 679 mmHg 72%
    03:00 +16°C° 0 mm 2 mps 679 mmHg 78%
    04:00 +16°C° 0 mm 2 mps 679 mmHg 83%
    05:00 +16°C° 0 mm 1 mps 679 mmHg 88%
    06:00 +18°C° 0 mm 2 mps 680 mmHg 78%
    07:00 +20°C° 0 mm 2 mps 681 mmHg 69%
    08:00 +23°C° 0 mm 2 mps 682 mmHg 59%
    09:00 +26°C° 0 mm 2 mps 682 mmHg 47%
    10:00 +28°C° 0 mm 3 mps 682 mmHg 36%
    11:00 +31°C° 0 mm 3 mps 683 mmHg 24%
    12:00 +33°C° 0 mm 4 mps 682 mmHg 23%
    13:00 +33°C° 0 mm 4 mps 681 mmHg 21%
    14:00 +33°C° 0 mm 4 mps 680 mmHg 19%
    15:00 +32°C° 0 mm 4 mps 680 mmHg 21%
    16:00 +30°C° 0 mm 4 mps 680 mmHg 23%
    17:00 +29°C° 0 mm 4 mps 680 mmHg 25%
    18:00 +27°C° 0 mm 4 mps 680 mmHg 33%
    19:00 +25°C° 0 mm 4 mps 680 mmHg 40%
    20:00 +22°C° 0 mm 4 mps 680 mmHg 48%
    21:00 +20°C° 0 mm 4 mps 680 mmHg 58%
    22:00 +19°C° 0 mm 3 mps 680 mmHg 68%
    23:00 +18°C° 0 mm 3 mps 680 mmHg 78%

    30 August, Friday

    Time Temperature Precipitation Wind Pressure Humidity
    00:00 +17°C° 0 mm 2 mps 680 mmHg 83%
    01:00 +17°C° 0 mm 2 mps 679 mmHg 88%
    02:00 +16°C° 0 mm 2 mps 679 mmHg 93%
    03:00 +16°C° 0 mm 2 mps 679 mmHg 93%
    04:00 +16°C° 0 mm 2 mps 679 mmHg 93%
    05:00 +16°C° 0 mm 2 mps 679 mmHg 94%
    06:00 +18°C° 0 mm 2 mps 679 mmHg 83%
    07:00 +19°C° 0 mm 2 mps 680 mmHg 72%
    08:00 +21°C° 0 mm 2 mps 681 mmHg 61%
    09:00 +26°C° 0 mm 2 mps 681 mmHg 47%
    10:00 +29°C° 0 mm 2 mps 681 mmHg 34%
    11:00 +33°C° 0 mm 3 mps 681 mmHg 20%
    12:00 +33°C° 0 mm 3 mps 680 mmHg 18%
    13:00 +34°C° 0 mm 3 mps 680 mmHg 16%
    14:00 +35°C° 0 mm 4 mps 679 mmHg 15%
    15:00 +34°C° 0 mm 4 mps 678 mmHg 17%
    16:00 +32°C° 0 mm 4 mps 678 mmHg 19%
    17:00 +30°C° 0 mm 3 mps 678 mmHg 21%
    18:00 +28°C° 0 mm 3 mps 678 mmHg 27%
    19:00 +25°C° 0 mm 3 mps 678 mmHg 33%
    20:00 +22°C° 0 mm 3 mps 678 mmHg 39%
    21:00 +21°C° 0 mm 2 mps 678 mmHg 43%
    22:00 +20°C° 0 mm 2 mps 678 mmHg 47%
    23:00 +18°C° 0 mm 2 mps 677 mmHg 51%

    31 August, Saturday

    Time Temperature Precipitation Wind Pressure Humidity
    00:00 +18°C° 0 mm 2 mps 677 mmHg 54%
    01:00 +18°C° 0 mm 1 mps 676 mmHg 57%
    02:00 +16°C° 0 mm 1 mps 676 mmHg 60%
    03:00 +16°C° 0 mm 1 mps 676 mmHg 60%
    04:00 +16°C° 0 mm 1 mps 676 mmHg 61%
    05:00 +15°C° 0 mm 1 mps 676 mmHg 61%
    06:00 +19°C° 0 mm 1 mps 677 mmHg 52%
    07:00 +22°C° 0 mm 1 mps 677 mmHg 43%
    08:00 +25°C° 0 mm 1 mps 678 mmHg 34%
    09:00 +29°C° 0 mm 1 mps 678 mmHg 26%
    10:00 +33°C° 0 mm 1 mps 679 mmHg 19%
    11:00 +36°C° 0 mm 1 mps 679 mmHg 12%
    12:00 +37°C° 0 mm 1 mps 678 mmHg 11%
    13:00 +39°C° 0 mm 1 mps 677 mmHg 10%
    14:00 +40°C° 0 mm 1 mps 676 mmHg 10%
    15:00 +37°C° 0 mm 1 mps 676 mmHg 11%
    16:00 +36°C° 0 mm 1 mps 676 mmHg 12%
    17:00 +34°C° 0 mm 1 mps 675 mmHg 13%
    18:00 +31°C° 0 mm 2 mps 675 mmHg 16%
    19:00 +29°C° 0 mm 2 mps 675 mmHg 18%
    20:00 +26°C° 0 mm 3 mps 675 mmHg 21%
    21:00 +25°C° 0 mm 2 mps 675 mmHg 24%
    22:00 +24°C° 0 mm 2 mps 675 mmHg 26%
    23:00 +23°C° 0 mm 2 mps 676 mmHg 28%
    Show more